Franklin, PA

3:34 AM EST on December 11, 2019 (GMT -0500)
Venango Regional

Weather History for KFKL - October, 2019

Change the Weather History Date:

Sunday, October 13, 2019

  Actual Average Record
Temperature  
Mean Temperature 48 °F -  
Max Temperature 63 °F 62 °F 85 °F (1928)
Min Temperature 32 °F 40 °F 24 °F (1934)
Degree Days  
Heating Degree Days 18    
Moisture  
Dew Point 34 °F    
Average Humidity 65    
Maximum Humidity 100    
Minimum Humidity 33    
Precipitation  
Precipitation 0.00 in - - ()
Sea Level Pressure  
Sea Level Pressure 30.02 in    
Wind  
Wind Speed 8 mph (South)    
Max Wind Speed 15 mph    
Max Gust Speed 21 mph    
Visibility 10 miles    
Events      
Averages and records for this station are not official NWS values.
T = Trace of Precipitation, MM = Missing Value Source: NWS Daily Summary

Daily Weather History Graph

Daily Weather History Graph

Search for Another Location

Airport or City:

Astronomy

Oct. 13, 2019 Rise Set
Actual Time 7:28 AM EDT 6:41 PM EDT
Civil Twilight 7:01 AM EDT 7:09 PM EDT
Nautical Twilight 6:28 AM EDT 7:41 PM EDT
Astronomical Twilight 5:56 AM EDT 8:13 PM EDT
Moon 7:04 PM EDT (10/13) 7:00 AM EDT (10/13)
Length of Visible Light 12h 08m
Length of Day
11h 13m
Full, 100% of the Moon is Illuminated
Oct 13
Full
Oct 13
Full
Oct 21
Last Quarter
Oct 27
New
Nov 4
First Quarter

Hourly Weather History & Observations

Time (EDT) Temp. Windchill Dew Point Humidity Pressure Visibility Wind Dir Wind Speed Gust Speed Precip Events Conditions
12:56 AM 36.0 °F 31.1 °F 30.9 °F 82% 30.10 in 10.0 mi SSW 5.8 mph - N/A   Clear
1:56 AM 35.1 °F 30.1 °F 30.9 °F 85% 30.10 in 10.0 mi SSW 5.8 mph - N/A   Clear
2:56 AM 37.0 °F 30.4 °F 32.0 °F 82% 30.08 in 10.0 mi South 9.2 mph - N/A   Clear
3:56 AM 37.0 °F 30.4 °F 32.0 °F 82% 30.07 in 10.0 mi South 9.2 mph - N/A   Clear
4:56 AM 33.1 °F 28.7 °F 30.0 °F 89% 30.10 in 10.0 mi SSW 4.6 mph - N/A   Clear
5:56 AM 32.0 °F 28.7 °F 30.9 °F 96% 30.10 in 10.0 mi SSE 3.5 mph - N/A   Clear
6:56 AM 33.1 °F 30.0 °F 32.0 °F 96% 30.10 in 10.0 mi SSE 3.5 mph - N/A   Clear
7:56 AM 33.1 °F 27.7 °F 33.1 °F 100% 30.10 in 10.0 mi South 5.8 mph - N/A   Clear
8:56 AM 39.9 °F 35.8 °F 37.0 °F 89% 30.09 in 10.0 mi South 5.8 mph - N/A   Clear
9:56 AM 43.0 °F 37.2 °F 39.0 °F 86% 30.09 in 10.0 mi South 10.4 mph - N/A   Clear
10:56 AM 48.0 °F - 39.0 °F 71% 30.08 in 10.0 mi South 11.5 mph - N/A   Clear
11:56 AM 53.1 °F - 37.9 °F 57% 30.06 in 10.0 mi SSW 11.5 mph - N/A   Clear
12:56 PM 55.9 °F - 35.1 °F 45% 30.01 in 10.0 mi South 13.8 mph 20.7 mph N/A   Clear
1:56 PM 60.1 °F - 33.1 °F 36% 29.98 in 10.0 mi South 11.5 mph - N/A   Clear
2:56 PM 62.1 °F - 33.1 °F 34% 29.95 in 10.0 mi South 15.0 mph - N/A   Clear
3:56 PM 63.0 °F - 33.1 °F 33% 29.93 in 10.0 mi South 13.8 mph 20.7 mph N/A   Clear
4:56 PM 62.1 °F - 34.0 °F 35% 29.93 in 10.0 mi South 11.5 mph - N/A   Clear
5:56 PM 59.0 °F - 32.0 °F 36% 29.93 in 10.0 mi SSW 8.1 mph - N/A   Clear
6:56 PM 55.0 °F - 35.1 °F 47% 29.93 in 10.0 mi South 8.1 mph - N/A   Clear
7:56 PM 52.0 °F - 35.1 °F 53% 29.94 in 10.0 mi South 9.2 mph - N/A   Clear
8:56 PM 51.1 °F - 35.1 °F 54% 29.94 in 10.0 mi SSE 10.4 mph - N/A   Clear
9:56 PM 48.0 °F - 36.0 °F 63% 29.95 in 10.0 mi South 9.2 mph - N/A   Clear
10:56 PM 46.9 °F - 36.0 °F 66% 29.94 in 10.0 mi South 9.2 mph - N/A   Clear
11:56 PM 51.1 °F - 35.1 °F 54% 29.93 in 10.0 mi SW 9.2 mph - N/A   Clear